CW1172 Weather Reports


time (UTC)temp
C
wind
direction
speed
KPH
gust
KPH
rain 1hr
cm
rain 24hr
cm
rain mn
cm
humidity
%
barometer
mb
20260510144549 11 294 0.0 0.0 0.00 0.00 0.00 59 1008.8
20260510143047 11 246 0.0 0.0 0.00 0.00 0.00 63 1009.2
20260510141547 11 298 0.0 0.0 0.00 0.00 0.00 64 1009.2
20260510140047 11 275 0.0 0.0 0.00 0.00 0.00 68 1009.3
20260510134546 11 229 0.0 0.0 0.00 0.00 0.00 67 1009.3
20260510133046 11 360 0.0 0.0 0.00 0.00 0.00 71 1009.5
20260510131544 11 244 0.0 0.0 0.00 0.00 0.00 67 1009.6
20260510130046 11 240 0.0 0.0 0.00 0.00 0.00 69 1009.7
20260510124547 11 251 0.0 0.0 0.00 0.00 0.00 67 1009.7
20260510123044 11 211 0.0 0.0 0.00 0.00 0.00 67 1009.9
20260510121543 11 254 0.0 0.0 0.00 0.00 0.00 65 1010.1
20260510120018 11 266 0.0 0.0 0.00 0.00 0.00 67 1010.3
20260510114511 12 272 0.0 0.0 0.00 0.00 0.00 66 1010.4
20260510113004 13 360 0.0 0.0 0.00 0.00 0.00 65 1010.3
20260510111502 13 167 0.0 0.0 0.00 0.00 0.00 63 1010.4
20260510110046 12 280 0.0 0.0 0.00 0.00 0.00 61 1010.6
20260510104537 12 232 0.0 0.0 0.00 0.00 0.00 64 1010.7
20260510103038 12 257 0.0 0.0 0.00 0.00 0.00 67 1010.8
20260510101533 12 238 0.0 0.0 0.00 0.00 0.00 65 1010.9
20260510100040 12 271 0.0 0.0 0.00 0.00 0.00 64 1011.1
20260510094544 12 360 0.0 0.0 0.00 0.00 0.00 63 1011.1
20260510093035 12 225 0.0 0.0 0.00 0.00 0.00 61 1011.1
20260510091540 12 207 0.0 0.0 0.00 0.00 0.00 61 1011.2
20260510090002 12 263 0.0 0.0 0.00 0.00 0.00 63 1011.2
20260510084502 13 240 0.0 0.0 0.00 0.00 0.00 64 1011.3
20260510083106 13 271 0.0 0.0 0.00 0.00 0.00 65 1011.4
20260510081558 13 360 0.0 0.0 0.00 0.00 0.00 65 1011.4
20260510080028 12 222 0.0 0.0 0.00 0.00 0.00 67 1011.8
20260510074526 12 213 0.0 0.0 0.00 0.00 0.00 67 1011.9
20260510073023 12 211 0.0 0.0 0.00 0.00 0.00 66 1012.2
20260510071532 12 254 0.0 0.0 0.00 0.00 0.00 71 1012.2
20260510070024 12 199 0.0 0.0 0.00 0.00 0.00 73 1012.5
20260510064521 12 219 0.0 0.0 0.00 0.00 0.00 73 1012.6
20260510063019 12 167 0.0 0.0 0.00 0.00 0.00 73 1012.8
20260510061517 12 169 0.0 0.0 0.00 0.00 0.00 76 1012.9
20260510054552 9 169 0.0 0.0 0.00 0.00 0.00 82 1013.3
20260510053049 8 180 0.0 0.0 0.00 0.00 0.00 84 1013.4
20260510051556 7 141 0.0 0.0 0.00 0.00 0.00 85 1013.6
20260510050002 7 116 0.0 0.0 0.00 0.00 0.00 86 1013.7
20260510044617 6 141 0.0 0.0 0.00 0.00 0.00 86 1013.8
20260510043056 6 137 0.0 0.0 0.00 0.00 0.00 86 1013.9
20260510041553 6 130 0.0 0.0 0.00 0.00 0.00 88 1014.1
20260510034549 3 148 0.0 0.0 0.00 0.00 0.00 88 1014.4
20260510033050 3 140 0.0 0.0 0.00 0.00 0.00 87 1014.5
20260510031546 3 159 0.0 0.0 0.00 0.00 0.00 87 1014.7
20260510030053 3 160 0.0 0.0 0.00 0.00 0.00 87 1014.9
20260510024544 3 157 0.0 0.0 0.00 0.00 0.00 87 1015.0
20260510021539 3 162 0.0 0.0 0.00 0.00 0.00 86 1015.5
20260510020039 3 161 0.0 0.0 0.00 0.00 0.00 86 1015.7
20260510014538 2 152 0.0 0.0 0.00 0.00 0.00 86 1015.8
20260510011542 2 155 0.0 0.0 0.00 0.00 0.00 83 1016.1
20260510010033 2 153 0.0 0.0 0.00 0.00 0.00 82 1016.4
20260510004531 2 153 0.0 0.0 0.00 0.00 0.00 81 1016.5
20260510001529 3 155 0.0 0.0 0.00 0.00 0.00 79 1017.0
20260510000028 2 148 0.0 0.0 0.00 0.00 0.00 78 1017.0
20260509234537 2 129 0.0 0.0 0.00 0.00 0.00 77 1017.1
20260509231526 3 123 0.0 0.0 0.00 0.00 0.00 73 1017.4
20260509230022 3 125 0.0 0.0 0.00 0.00 0.00 72 1017.6
20260509224520 3 125 0.0 0.0 0.00 0.00 0.00 72 1017.7
20260509221516 4 128 0.0 0.0 0.00 0.00 0.00 71 1017.7
20260509220023 4 128 0.0 0.0 0.00 0.00 0.00 70 1017.8
20260509214512 5 126 0.0 0.0 0.00 0.00 0.00 70 1018.0
20260509211513 5 116 0.0 0.0 0.00 0.00 0.00 69 1018.2
20260509210011 6 360 0.0 0.0 0.00 0.00 0.00 67 1018.5
20260509204510 6 301 0.0 0.0 0.00 0.00 0.00 66 1018.6
20260509201513 7 360 0.0 0.0 0.00 0.00 0.00 63 1018.7
20260509200011 8 300 0.0 0.0 0.00 0.00 0.00 61 1018.6
20260509194513 9 300 0.0 0.0 0.00 0.00 0.00 57 1018.7
20260509191513 11 360 0.0 0.0 0.00 0.00 0.00 50 1018.8
20260509190014 11 360 0.0 0.0 0.00 0.00 0.00 46 1018.8
20260509184507 11 301 0.0 0.0 0.00 0.00 0.00 44 1018.9
20260509181506 13 300 0.0 0.0 0.00 0.00 0.00 44 1018.9
20260509180008 13 281 0.0 0.0 0.00 0.00 0.00 42 1018.9
20260509174505 13 309 0.0 0.0 0.00 0.00 0.00 42 1018.9
20260509171505 16 259 0.0 0.0 0.00 0.00 0.00 38 1019.2
20260509170009 16 360 0.0 0.0 0.00 0.00 0.00 35 1019.1
20260509164503 16 360 0.0 0.0 0.00 0.00 0.00 36 1019.2
20260509161502 16 286 0.0 0.0 0.00 0.00 0.00 34 1019.5
20260509160001 17 360 0.0 0.0 0.00 0.00 0.00 34 1019.5
20260509154614 17 312 0.0 0.0 0.00 0.00 0.00 34 1019.7
20260509151558 16 253 0.0 0.0 0.00 0.00 0.00 39 1020.1
20260509150057 16 304 0.0 0.0 0.00 0.00 0.00 36 1020.2